weather.gov     
National Weather Service

Terminal Aerodrome Forecast
NWS Homepage
This page is being discontinued on March 12, 2014.
The same data is available at this site. Please update your bookmarks.
Thank you, and we apologize for the inconvenience.
Please send an email to SR-SRH.Webmaster@noaa.gov with any concerns.


Current Version
Previous Version:    01  02  03  04  05  06  07  08  09  10  11  12  13  14  15  16  17  18  19  20  21  22  23  24  25  26  27  28  29  30  
   31  32  33  34  35  36  37  38  39  40  41  42  43  44  45  
[Printable]
914
FTUS41 KPHI 230800 AAA
TAFPNE
TAF AMD
KPNE 230859Z 2309/2406 06007KT P6SM SCT025 OVC100
     FM231000 07005KT P6SM OVC025
      TEMPO 2310/2313 6SM -SHRA
     FM231300 07007KT P6SM OVC015
     FM231600 08008KT P6SM OVC020
     FM231800 08007KT P6SM SCT025 BKN050
     FM240500 04003KT P6SM SCT050 SCT120=


U.S. Dept. of Commerce
NOAA National Weather Service
1325 East West Highway
Silver Spring, MD 20910
E-mail: w-nws.webmaster@noaa.gov
Page last modified: May 16, 2007
NATIONAL WEATHER SERVICE: for Safety, for Work, for Fun - FOR LIFE